QPF
0.03 0.02 0.01 0.01 0.02 0.02 0.02 0.03 0.03 0.03 0.03 0.03 0.02 0.03 0.04 0.05 0.08 0.09 0.09 0.12 0.12 0.10 0.10 0.10 0.08 0.06 0.05 0.04 0.04 0.04 0.03 0.03 0.03 0.03 0.03 0.03 0.03 0.04 0.05 0.05 0.06 0.07 0.07
0.07 0.04 0.04 0.04 0.03 0.03 0.02 0.01 0.02 0.03 0.03 0.03 0.02 0.01 0.02 0.03 0.05 0.07 0.07 0.10 0.11 0.09 0.09 0.10 0.10 0.09 0.07 0.06 0.05 0.04 0.04 0.03 0.03 0.03 0.03 0.02 0.02 0.03 0.04 0.05 0.06 0.06 0.08
0.08 0.06 0.05 0.05 0.05 0.04 0.04 0.02 0.02 0.02 0.03 0.04 0.03 0.02 0.02 0.02 0.04 0.05 0.06 0.09 0.11 0.12 0.13 0.13 0.11 0.10 0.09 0.07 0.07 0.07 0.06 0.04 0.03 0.03 0.03 0.03 0.02 0.02 0.02 0.04 0.06 0.06 0.05
0.05 0.05 0.05 0.05 0.05 0.05 0.05 0.04 0.04 0.03 0.02 0.04 0.04 0.03 0.02 0.02 0.02 0.03 0.04 0.05 0.08 0.10 0.13 0.14 0.11 0.10 0.09 0.07 0.07 0.08 0.07 0.05 0.04 0.04 0.04 0.04 0.04 0.03 0.03 0.03 0.04 0.05 0.05
0.04 0.05 0.04 0.04 0.05 0.05 0.05 0.04 0.03 0.02 0.01 0.02 0.03 0.03 0.02 0.01 0.02 0.03 0.03 0.04 0.04 0.06 0.06 0.07 0.08 0.08 0.08 0.07 0.06 0.05 0.06 0.05 0.04 0.04 0.04 0.03 0.04 0.04 0.03 0.03 0.03 0.04 0.06
0.06 0.05 0.05 0.03 0.04 0.04 0.05 0.05 0.04 0.03 0.02 0.01 0.02 0.03 0.03 0.02 0.03 0.04 0.04 0.04 0.05 0.06 0.06 0.04 0.03 0.04 0.06 0.06 0.05 0.05 0.04 0.04 0.04 0.04 0.04 0.04 0.03 0.02 0.02 0.03 0.03 0.02 0.04
0.06 0.05 0.05 0.04 0.04 0.04 0.04 0.04 0.04 0.03 0.03 0.02 0.02 0.03 0.04 0.03 0.04 0.04 0.04 0.05 0.05 0.06 0.06 0.04 0.03 0.02 0.03 0.04 0.04 0.04 0.05 0.05 0.05 0.04 0.04 0.04 0.03 0.03 0.03 0.02 0.03 0.03 0.03
0.06 0.05 0.06 0.06 0.05 0.04 0.03 0.03 0.03 0.03 0.03 0.02 0.02 0.02 0.04 0.04 0.03 0.04 0.04 0.05 0.05 0.04 0.04 0.04 0.03 0.02 0.03 0.03 0.02 0.03 0.04 0.04 0.04 0.05 0.05 0.04 0.03 0.03 0.03 0.03 0.03 0.03 0.03
0.05 0.04 0.04 0.05 0.04 0.03 0.02 0.01 0.02 0.02 0.03 0.03 0.03 0.03 0.04 0.04 0.04 0.06 0.05 0.05 0.05 0.04 0.03 0.03 0.02 0.02 0.03 0.02 0.01 0.02 0.02 0.03 0.03 0.04 0.05 0.04 0.03 0.03 0.03 0.03 0.03 0.03 0.05
0.04 0.02 0.02 0.02 0.02 0.02 0.02 0.01 0.01 0.01 0.02 0.03 0.04 0.04 0.05 0.03 0.03 0.05 0.06 0.06 0.06 0.03 0.02 0.02 0.02 0.02 0.02 0.02 0.01 0.01 0.02 0.02 0.03 0.03 0.04 0.05 0.05 0.04 0.04 0.03 0.03 0.03 0.05
0.02 0.03 0.02 0.02 0.02 0.01 0.01 0.01 0.01 0.01 0.01 0.02 0.03 0.04 0.05 0.05 0.04 0.03 0.05 0.06 0.07 0.04 0.02 0.01 0.01 0.01 0.02 0.01 0.01 0.01 0.01 0.01 0.01 0.01 0.02 0.03 0.04 0.05 0.05 0.04 0.03 0.03 0.04
0.06 0.04 0.04 0.03 0.03 0.02 0.02 0.01 0.01 0.02 0.01 0.01 0.02 0.03 0.04 0.04 0.05 0.04 0.03 0.04 0.05 0.05 0.02 0.01 0.01 0.01 0.01 0.01 0.01 0.01 0.01 0.01 0.01 0.01 0.01 0.01 0.02 0.03 0.05 0.06 0.04 0.04 0.04
0.08 0.05 0.04 0.04 0.04 0.04 0.03 0.02 0.02 0.02 0.01 0.02 0.02 0.02 0.03 0.04 0.05 0.04 0.03 0.02 0.03 0.04 0.03 0.01 0.01 0.01 0.02 0.02 0.02 0.01 0.01 0.01 0.01 0.01 0.01 0.00 0.01 0.02 0.03 0.05 0.05 0.04 0.04
0.06 0.03 0.03 0.03 0.04 0.03 0.02 0.02 0.02 0.02 0.02 0.02 0.02 0.02 0.02 0.03 0.05 0.05 0.03 0.02 0.02 0.02 0.02 0.01 0.01 0.01 0.02 0.02 0.02 0.02 0.01 0.01 0.01 0.01 0.01 0.00 0.00 0.01 0.01 0.03 0.04 0.04 0.04
0.03 0.03 0.03 0.03 0.02 0.02 0.02 0.01 0.01 0.01 0.02 0.02 0.02 0.02 0.02 0.02 0.03 0.04 0.04 0.03 0.03 0.02 0.02 0.01 0.01 0.02 0.02 0.02 0.02 0.02 0.01 0.01 0.01 0.01 0.01 0.00 0.00 0.00 0.01 0.01 0.02 0.02 0.02
0.03 0.03 0.04 0.03 0.03 0.03 0.02 0.02 0.01 0.01 0.02 0.02 0.02 0.03 0.02 0.01 0.01 0.01 0.01 0.02 0.02 0.02 0.03 0.02 0.01 0.01 0.02 0.03 0.02 0.02 0.03 0.02 0.02 0.01 0.01 0.01 0.00 0.00 0.00 0.00 0.01 0.02 0.01
0.03 0.03 0.04 0.03 0.02 0.02 0.01 0.02 0.02 0.01 0.01 0.02 0.03 0.03 0.04 0.02 0.01 0.01 0.01 0.01 0.01 0.02 0.02 0.02 0.02 0.02 0.02 0.02 0.02 0.03 0.02 0.02 0.02 0.01 0.01 0.01 0.00 0.00 0.00 0.00 0.01 0.01 0.01
0.04 0.04 0.04 0.02 0.01 0.01 0.01 0.02 0.02 0.02 0.02 0.01 0.02 0.03 0.04 0.04 0.01 0.01 0.01 0.01 0.00 0.01 0.01 0.01 0.02 0.02 0.01 0.01 0.02 0.02 0.02 0.03 0.03 0.03 0.02 0.02 0.01 0.01 0.00 0.00 0.00 0.01 0.01
0.05 0.04 0.03 0.02 0.01 0.02 0.02 0.02 0.03 0.04 0.03 0.03 0.02 0.02 0.03 0.03 0.01 0.01 0.01 0.01 0.01 0.01 0.01 0.01 0.01 0.01 0.01 0.01 0.01 0.02 0.02 0.03 0.03 0.04 0.03 0.02 0.02 0.01 0.00 0.00 0.00 0.01 0.01
0.04 0.03 0.03 0.03 0.02 0.02 0.03 0.03 0.03 0.03 0.03 0.03 0.03 0.03 0.02 0.01 0.01 0.01 0.01 0.01 0.01 0.01 0.01 0.01 0.01 0.01 0.01 0.01 0.02 0.01 0.02 0.03 0.03 0.02 0.02 0.02 0.01 0.01 0.01 0.01 0.01 0.01 0.01
0.03 0.04 0.05 0.04 0.03 0.03 0.04 0.04 0.04 0.03 0.04 0.04 0.03 0.03 0.02 0.02 0.02 0.02 0.02 0.01 0.01 0.01 0.01 0.01 0.01 0.01 0.02 0.02 0.02 0.02 0.02 0.02 0.03 0.03 0.02 0.02 0.01 0.01 0.01 0.01 0.01 0.01 0.02
0.07 0.07 0.05 0.04 0.04 0.05 0.06 0.05 0.05 0.04 0.04 0.03 0.04 0.04 0.05 0.05 0.05 0.04 0.03 0.02 0.02 0.02 0.01 0.01 0.02 0.03 0.02 0.02 0.01 0.02 0.02 0.02 0.02 0.04 0.04 0.02 0.01 0.01 0.01 0.01 0.02 0.02 0.02
0.09 0.09 0.07 0.05 0.04 0.04 0.05 0.04 0.03 0.03 0.03 0.03 0.02 0.02 0.03 0.04 0.05 0.05 0.05 0.04 0.04 0.02 0.02 0.03 0.03 0.01 0.01 0.02 0.02 0.01 0.01 0.01 0.01 0.03 0.06 0.04 0.02 0.01 0.01 0.02 0.02 0.02 0.02
0.06 0.08 0.09 0.07 0.05 0.06 0.04 0.02 0.02 0.02 0.02 0.01 0.01 0.01 0.01 0.01 0.02 0.03 0.03 0.03 0.02 0.02 0.02 0.02 0.02 0.02 0.02 0.02 0.03 0.03 0.02 0.02 0.02 0.03 0.06 0.06 0.03 0.02 0.01 0.01 0.02 0.01 0.01
0.04 0.05 0.06 0.07 0.07 0.07 0.03 0.01 0.01 0.01 0.01 0.01 0.01 0.01 0.01 0.01 0.02 0.03 0.02 0.02 0.02 0.02 0.02 0.02 0.02 0.02 0.02 0.02 0.02 0.03 0.04 0.03 0.01 0.01 0.03 0.07 0.06 0.03 0.03 0.02 0.02 0.01 0.01
0.04 0.04 0.04 0.04 0.06 0.05 0.03 0.02 0.02 0.01 0.01 0.02 0.02 0.02 0.02 0.01 0.01 0.01 0.02 0.02 0.02 0.03 0.04 0.04 0.05 0.04 0.03 0.02 0.02 0.02 0.03 0.04 0.02 0.02 0.02 0.04 0.08 0.07 0.04 0.03 0.01 0.01 0.01
MSLP
1013.89 1013.95 1013.96 1013.98 1014.02 1014.13 1014.29 1014.51 1014.74 1014.95 1015.12 1015.22 1015.27 1015.27 1015.27 1015.29 1015.35 1015.46 1015.62 1015.81 1016.01 1016.19 1016.35 1016.48 1016.59 1016.70 1016.82 1016.96 1017.14 1017.34 1017.56 1017.80 1018.05 1018.30 1018.56 1018.83 1019.10 1019.38 1019.66 1019.93 1020.18 1020.42 1020.64
1013.82 1013.87 1013.89 1013.92 1013.99 1014.12 1014.31 1014.55 1014.81 1015.05 1015.23 1015.35 1015.41 1015.42 1015.40 1015.39 1015.42 1015.49 1015.60 1015.74 1015.91 1016.07 1016.21 1016.34 1016.45 1016.56 1016.68 1016.80 1016.95 1017.12 1017.31 1017.51 1017.73 1017.96 1018.20 1018.46 1018.73 1019.01 1019.30 1019.59 1019.86 1020.12 1020.38
1013.71 1013.78 1013.81 1013.87 1013.96 1014.12 1014.34 1014.61 1014.89 1015.15 1015.36 1015.51 1015.57 1015.58 1015.56 1015.52 1015.50 1015.51 1015.56 1015.64 1015.75 1015.87 1015.99 1016.10 1016.21 1016.32 1016.43 1016.55 1016.68 1016.82 1016.98 1017.15 1017.33 1017.53 1017.75 1017.99 1018.25 1018.54 1018.84 1019.14 1019.44 1019.73 1020.02
1013.59 1013.68 1013.74 1013.83 1013.96 1014.14 1014.39 1014.67 1014.97 1015.25 1015.48 1015.64 1015.72 1015.73 1015.69 1015.63 1015.56 1015.52 1015.50 1015.52 1015.56 1015.62 1015.70 1015.79 1015.89 1015.99 1016.09 1016.21 1016.33 1016.45 1016.59 1016.72 1016.87 1017.04 1017.23 1017.45 1017.70 1017.98 1018.28 1018.59 1018.92 1019.24 1019.57
1013.46 1013.58 1013.69 1013.82 1013.98 1014.19 1014.45 1014.74 1015.04 1015.32 1015.55 1015.72 1015.81 1015.83 1015.79 1015.71 1015.62 1015.53 1015.45 1015.40 1015.37 1015.38 1015.41 1015.46 1015.53 1015.62 1015.72 1015.82 1015.93 1016.04 1016.16 1016.27 1016.40 1016.54 1016.70 1016.89 1017.12 1017.38 1017.67 1017.99 1018.32 1018.67 1019.03
1013.32 1013.49 1013.65 1013.82 1014.02 1014.25 1014.51 1014.80 1015.08 1015.35 1015.58 1015.75 1015.85 1015.88 1015.86 1015.78 1015.68 1015.56 1015.44 1015.33 1015.25 1015.20 1015.17 1015.18 1015.21 1015.27 1015.35 1015.44 1015.54 1015.63 1015.73 1015.83 1015.93 1016.04 1016.18 1016.34 1016.54 1016.78 1017.05 1017.35 1017.69 1018.04 1018.42
1013.17 1013.40 1013.61 1013.83 1014.06 1014.31 1014.56 1014.83 1015.09 1015.34 1015.55 1015.72 1015.84 1015.90 1015.90 1015.85 1015.76 1015.64 1015.51 1015.37 1015.24 1015.13 1015.04 1014.99 1014.98 1014.99 1015.04 1015.10 1015.17 1015.25 1015.33 1015.41 1015.49 1015.59 1015.70 1015.84 1016.01 1016.21 1016.45 1016.73 1017.04 1017.38 1017.76
1013.00 1013.28 1013.56 1013.82 1014.08 1014.33 1014.57 1014.82 1015.05 1015.27 1015.47 1015.65 1015.79 1015.89 1015.94 1015.94 1015.89 1015.80 1015.67 1015.51 1015.35 1015.19 1015.05 1014.93 1014.85 1014.81 1014.79 1014.81 1014.84 1014.89 1014.95 1015.02 1015.09 1015.18 1015.28 1015.39 1015.53 1015.70 1015.90 1016.13 1016.41 1016.72 1017.06
1012.80 1013.13 1013.45 1013.75 1014.03 1014.28 1014.52 1014.74 1014.95 1015.15 1015.35 1015.54 1015.71 1015.86 1015.97 1016.04 1016.05 1016.00 1015.89 1015.74 1015.55 1015.35 1015.15 1014.97 1014.81 1014.69 1014.60 1014.55 1014.54 1014.55 1014.58 1014.64 1014.71 1014.79 1014.88 1014.99 1015.10 1015.23 1015.39 1015.57 1015.79 1016.04 1016.35
1012.55 1012.92 1013.27 1013.60 1013.90 1014.15 1014.37 1014.58 1014.77 1014.96 1015.16 1015.37 1015.59 1015.80 1015.98 1016.11 1016.19 1016.19 1016.12 1015.98 1015.78 1015.55 1015.29 1015.03 1014.80 1014.59 1014.42 1014.30 1014.22 1014.19 1014.20 1014.24 1014.30 1014.39 1014.48 1014.58 1014.68 1014.78 1014.89 1015.01 1015.17 1015.36 1015.60
1012.24 1012.64 1013.01 1013.35 1013.65 1013.91 1014.13 1014.32 1014.50 1014.69 1014.91 1015.14 1015.40 1015.66 1015.91 1016.11 1016.24 1016.30 1016.26 1016.14 1015.94 1015.68 1015.38 1015.06 1014.75 1014.46 1014.21 1014.01 1013.87 1013.79 1013.76 1013.79 1013.85 1013.94 1014.04 1014.14 1014.23 1014.30 1014.37 1014.44 1014.52 1014.65 1014.82
1011.87 1012.27 1012.65 1013.00 1013.30 1013.56 1013.77 1013.96 1014.15 1014.35 1014.57 1014.84 1015.13 1015.43 1015.72 1015.97 1016.15 1016.25 1016.24 1016.14 1015.94 1015.66 1015.34 1014.98 1014.61 1014.26 1013.94 1013.68 1013.48 1013.34 1013.28 1013.28 1013.34 1013.43 1013.53 1013.64 1013.72 1013.78 1013.81 1013.82 1013.84 1013.89 1014.00
1011.45 1011.85 1012.22 1012.56 1012.86 1013.11 1013.33 1013.52 1013.71 1013.92 1014.16 1014.43 1014.75 1015.07 1015.39 1015.66 1015.87 1015.99 1016.01 1015.92 1015.74 1015.46 1015.13 1014.75 1014.36 1013.97 1013.61 1013.29 1013.04 1012.87 1012.77 1012.74 1012.78 1012.87 1012.97 1013.07 1013.14 1013.18 1013.18 1013.15 1013.12 1013.10 1013.14
1011.00 1011.38 1011.74 1012.07 1012.36 1012.61 1012.83 1013.02 1013.21 1013.42 1013.67 1013.95 1014.27 1014.59 1014.91 1015.19 1015.40 1015.53 1015.56 1015.49 1015.32 1015.07 1014.76 1014.40 1014.01 1013.62 1013.24 1012.89 1012.61 1012.39 1012.25 1012.19 1012.20 1012.27 1012.36 1012.45 1012.51 1012.53 1012.51 1012.44 1012.36 1012.29 1012.26
1010.56 1010.93 1011.27 1011.58 1011.86 1012.11 1012.32 1012.51 1012.70 1012.91 1013.15 1013.42 1013.71 1014.02 1014.31 1014.57 1014.77 1014.89 1014.93 1014.87 1014.74 1014.53 1014.26 1013.95 1013.60 1013.23 1012.86 1012.51 1012.20 1011.95 1011.77 1011.67 1011.64 1011.67 1011.73 1011.80 1011.84 1011.85 1011.80 1011.71 1011.59 1011.47 1011.39
1010.18 1010.52 1010.85 1011.15 1011.41 1011.64 1011.85 1012.03 1012.21 1012.41 1012.63 1012.87 1013.13 1013.40 1013.66 1013.88 1014.05 1014.15 1014.19 1014.16 1014.06 1013.91 1013.70 1013.45 1013.16 1012.84 1012.50 1012.16 1011.84 1011.56 1011.34 1011.19 1011.10 1011.08 1011.10 1011.14 1011.16 1011.15 1011.09 1010.98 1010.83 1010.69 1010.58
1009.88 1010.21 1010.52 1010.81 1011.06 1011.27 1011.46 1011.63 1011.79 1011.96 1012.15 1012.36 1012.58 1012.81 1013.01 1013.19 1013.33 1013.41 1013.44 1013.43 1013.37 1013.26 1013.12 1012.94 1012.72 1012.46 1012.16 1011.84 1011.52 1011.22 1010.95 1010.74 1010.60 1010.52 1010.49 1010.48 1010.48 1010.45 1010.38 1010.27 1010.12 1009.96 1009.83
1009.70 1010.02 1010.31 1010.58 1010.81 1011.01 1011.17 1011.31 1011.45 1011.59 1011.74 1011.91 1012.09 1012.27 1012.44 1012.57 1012.67 1012.73 1012.75 1012.75 1012.71 1012.65 1012.57 1012.45 1012.29 1012.08 1011.82 1011.52 1011.20 1010.87 1010.56 1010.29 1010.09 1009.95 1009.87 1009.83 1009.80 1009.76 1009.70 1009.59 1009.45 1009.29 1009.15
1009.62 1009.93 1010.22 1010.46 1010.67 1010.84 1010.97 1011.08 1011.18 1011.28 1011.40 1011.54 1011.69 1011.83 1011.95 1012.05 1012.12 1012.15 1012.16 1012.15 1012.12 1012.08 1012.03 1011.95 1011.83 1011.66 1011.42 1011.14 1010.81 1010.45 1010.11 1009.80 1009.54 1009.35 1009.23 1009.16 1009.11 1009.08 1009.02 1008.94 1008.82 1008.68 1008.54
1009.64 1009.93 1010.20 1010.42 1010.60 1010.73 1010.82 1010.89 1010.95 1011.02 1011.11 1011.22 1011.34 1011.45 1011.56 1011.63 1011.67 1011.68 1011.66 1011.63 1011.59 1011.54 1011.49 1011.42 1011.31 1011.15 1010.92 1010.64 1010.30 1009.93 1009.56 1009.21 1008.92 1008.69 1008.54 1008.46 1008.41 1008.39 1008.36 1008.30 1008.21 1008.09 1007.97
1009.69 1009.97 1010.22 1010.41 1010.55 1010.63 1010.67 1010.70 1010.72 1010.76 1010.82 1010.91 1011.02 1011.13 1011.22 1011.27 1011.29 1011.27 1011.22 1011.16 1011.08 1011.00 1010.91 1010.81 1010.68 1010.51 1010.28 1009.98 1009.64 1009.26 1008.88 1008.51 1008.20 1007.97 1007.81 1007.72 1007.69 1007.69 1007.69 1007.66 1007.61 1007.53 1007.43
1009.74 1010.00 1010.22 1010.38 1010.47 1010.50 1010.49 1010.47 1010.45 1010.46 1010.51 1010.59 1010.70 1010.81 1010.90 1010.95 1010.95 1010.90 1010.81 1010.69 1010.56 1010.42 1010.27 1010.12 1009.95 1009.74 1009.48 1009.18 1008.83 1008.45 1008.07 1007.71 1007.41 1007.18 1007.03 1006.96 1006.95 1006.98 1007.01 1007.03 1007.02 1006.96 1006.89
1009.74 1009.98 1010.17 1010.28 1010.33 1010.31 1010.25 1010.17 1010.12 1010.10 1010.14 1010.23 1010.34 1010.46 1010.56 1010.61 1010.60 1010.52 1010.39 1010.21 1010.00 1009.78 1009.56 1009.34 1009.10 1008.85 1008.56 1008.24 1007.89 1007.53 1007.16 1006.83 1006.55 1006.35 1006.23 1006.18 1006.21 1006.27 1006.34 1006.40 1006.42 1006.40 1006.35
1009.70 1009.91 1010.06 1010.13 1010.12 1010.04 1009.93 1009.82 1009.73 1009.70 1009.73 1009.82 1009.94 1010.07 1010.18 1010.23 1010.21 1010.10 1009.92 1009.67 1009.39 1009.09 1008.79 1008.49 1008.18 1007.88 1007.57 1007.24 1006.89 1006.54 1006.21 1005.91 1005.67 1005.50 1005.42 1005.41 1005.47 1005.56 1005.67 1005.76 1005.82 1005.83 1005.81
1009.61 1009.79 1009.90 1009.93 1009.87 1009.74 1009.59 1009.43 1009.32 1009.27 1009.29 1009.38 1009.51 1009.65 1009.76 1009.81 1009.77 1009.63 1009.40 1009.09 1008.74 1008.36 1007.97 1007.60 1007.23 1006.88 1006.54 1006.20 1005.87 1005.55 1005.25 1004.99 1004.78 1004.66 1004.61 1004.64 1004.73 1004.85 1004.99 1005.12 1005.22 1005.27 1005.27
1009.53 1009.68 1009.75 1009.72 1009.62 1009.45 1009.25 1009.06 1008.92 1008.86 1008.87 1008.96 1009.09 1009.22 1009.32 1009.35 1009.28 1009.11 1008.83 1008.46 1008.04 1007.59 1007.14 1006.70 1006.28 1005.89 1005.53 1005.18 1004.86 1004.56 1004.29 1004.07 1003.90 1003.81 1003.80 1003.85 1003.97 1004.13 1004.30 1004.46 1004.60 1004.69 1004.73
Thickness
5735 5733 5731 5730 5729 5727 5726 5725 5724 5723 5722 5722 5722 5721 5720 5718 5717 5716 5716 5715 5714 5714 5713 5712 5711 5710 5710 5710 5709 5708 5708 5709 5708 5708 5708 5707 5706 5706 5706 5706 5706 5706 5706
5732 5729 5727 5726 5725 5724 5722 5722 5721 5719 5719 5718 5718 5717 5716 5715 5714 5712 5712 5711 5710 5710 5709 5708 5707 5706 5705 5705 5704 5704 5704 5705 5704 5704 5704 5704 5703 5703 5703 5703 5703 5703 5703
5730 5727 5724 5722 5721 5720 5719 5718 5717 5715 5714 5713 5713 5712 5711 5711 5710 5708 5708 5707 5707 5706 5705 5703 5703 5702 5701 5701 5701 5701 5701 5701 5701 5700 5700 5700 5700 5699 5700 5700 5699 5700 5700
5727 5724 5721 5719 5718 5716 5715 5713 5712 5710 5708 5707 5707 5707 5707 5706 5706 5705 5704 5704 5703 5702 5700 5699 5698 5698 5697 5697 5697 5697 5697 5697 5697 5696 5696 5696 5696 5696 5696 5697 5696 5696 5697
5724 5721 5718 5716 5714 5712 5710 5709 5707 5705 5703 5702 5702 5703 5702 5702 5701 5701 5700 5700 5699 5698 5696 5695 5694 5694 5693 5692 5692 5693 5693 5693 5692 5692 5692 5692 5692 5692 5692 5693 5693 5693 5693
5720 5717 5715 5712 5710 5708 5705 5704 5702 5701 5699 5698 5699 5698 5697 5697 5697 5696 5696 5696 5695 5694 5692 5691 5690 5690 5689 5689 5688 5689 5689 5689 5688 5688 5688 5688 5688 5688 5688 5689 5689 5690 5690
5717 5714 5711 5708 5706 5704 5701 5699 5697 5695 5693 5693 5690 5688 5689 5691 5692 5692 5691 5691 5690 5690 5689 5687 5686 5686 5685 5684 5684 5684 5684 5684 5684 5684 5684 5684 5684 5684 5684 5685 5685 5686 5686
5714 5711 5708 5705 5703 5700 5697 5695 5693 5689 5688 5688 5684 5679 5677 5679 5683 5687 5686 5685 5685 5685 5684 5683 5682 5681 5681 5680 5680 5679 5679 5679 5679 5679 5679 5680 5680 5680 5680 5680 5681 5682 5682
5711 5708 5706 5702 5699 5696 5692 5690 5688 5685 5681 5681 5681 5677 5671 5669 5672 5677 5679 5679 5679 5679 5679 5679 5678 5677 5676 5675 5675 5675 5674 5674 5674 5674 5675 5675 5675 5676 5676 5676 5676 5677 5678
5707 5705 5702 5699 5696 5693 5689 5686 5684 5682 5679 5676 5676 5675 5673 5671 5666 5665 5669 5672 5673 5674 5674 5674 5674 5673 5673 5672 5671 5671 5670 5669 5669 5670 5670 5670 5670 5671 5671 5671 5672 5672 5673
5703 5701 5698 5695 5692 5689 5686 5683 5680 5678 5676 5673 5671 5670 5668 5667 5665 5662 5660 5663 5665 5668 5669 5669 5669 5669 5668 5668 5667 5666 5666 5665 5665 5665 5664 5664 5665 5665 5666 5666 5666 5667 5667
5698 5696 5694 5691 5688 5685 5682 5680 5677 5674 5672 5670 5668 5666 5664 5662 5659 5657 5655 5655 5656 5660 5662 5664 5664 5664 5663 5663 5662 5662 5661 5661 5660 5660 5659 5659 5659 5660 5660 5660 5660 5661 5661
5693 5692 5690 5687 5684 5682 5679 5676 5673 5671 5668 5666 5664 5663 5662 5660 5658 5655 5652 5650 5650 5651 5654 5656 5658 5658 5658 5658 5657 5656 5656 5656 5655 5654 5654 5654 5654 5654 5653 5654 5654 5654 5655
5692 5690 5687 5684 5681 5678 5676 5672 5669 5667 5665 5662 5661 5659 5658 5656 5655 5653 5650 5646 5642 5642 5644 5647 5650 5652 5652 5652 5652 5651 5650 5650 5650 5649 5648 5648 5648 5648 5647 5647 5647 5648 5649
5690 5687 5684 5680 5677 5674 5671 5668 5664 5662 5660 5658 5657 5655 5654 5652 5651 5649 5647 5644 5639 5635 5635 5639 5641 5645 5646 5646 5646 5646 5645 5645 5645 5644 5643 5643 5642 5641 5641 5641 5641 5642 5642
5688 5684 5681 5677 5674 5671 5668 5664 5660 5658 5655 5654 5652 5650 5649 5648 5646 5644 5643 5641 5638 5634 5631 5634 5635 5638 5640 5641 5641 5641 5640 5640 5639 5639 5638 5637 5636 5635 5635 5635 5635 5635 5636
5685 5682 5679 5675 5671 5667 5664 5660 5656 5654 5651 5649 5647 5646 5644 5643 5641 5640 5638 5636 5633 5631 5628 5629 5630 5632 5633 5633 5634 5634 5634 5634 5634 5634 5633 5632 5630 5629 5629 5629 5629 5629 5630
5683 5680 5676 5672 5669 5665 5661 5657 5653 5650 5647 5644 5642 5641 5639 5638 5636 5635 5633 5631 5629 5628 5625 5624 5625 5625 5626 5627 5628 5628 5628 5629 5629 5629 5628 5627 5625 5624 5623 5623 5623 5623 5623
5680 5677 5673 5669 5666 5662 5658 5654 5650 5647 5644 5641 5639 5637 5635 5633 5632 5631 5629 5627 5626 5625 5623 5621 5620 5620 5620 5621 5621 5622 5623 5623 5624 5624 5623 5622 5621 5620 5619 5618 5618 5617 5617
5677 5674 5670 5667 5663 5659 5655 5651 5647 5644 5641 5639 5637 5635 5633 5631 5629 5627 5626 5624 5622 5620 5618 5617 5615 5615 5614 5615 5615 5614 5615 5616 5617 5619 5618 5617 5616 5615 5614 5614 5613 5613 5612
5675 5671 5667 5663 5659 5656 5653 5649 5645 5643 5639 5636 5634 5633 5631 5630 5629 5626 5625 5622 5620 5616 5614 5612 5611 5610 5610 5609 5610 5610 5609 5610 5611 5613 5612 5612 5612 5611 5610 5609 5609 5608 5608
5670 5667 5663 5659 5655 5653 5651 5648 5644 5641 5638 5635 5632 5631 5630 5628 5627 5626 5625 5623 5620 5616 5613 5610 5609 5607 5608 5608 5607 5606 5604 5603 5604 5608 5606 5606 5607 5606 5607 5606 5607 5606 5605
5666 5663 5660 5656 5652 5650 5648 5645 5642 5639 5636 5633 5631 5629 5629 5628 5626 5624 5622 5621 5619 5618 5616 5612 5608 5608 5607 5607 5605 5603 5602 5601 5601 5603 5601 5601 5603 5603 5605 5605 5605 5604 5603
5661 5659 5656 5653 5650 5647 5645 5642 5640 5636 5634 5632 5630 5628 5626 5626 5625 5622 5620 5618 5616 5615 5614 5613 5611 5610 5609 5608 5605 5603 5601 5600 5600 5601 5600 5598 5600 5601 5603 5603 5603 5602 5602
5657 5655 5653 5650 5647 5644 5642 5640 5637 5633 5631 5629 5629 5627 5626 5624 5624 5621 5618 5616 5614 5614 5615 5613 5612 5610 5609 5607 5605 5601 5598 5596 5595 5597 5598 5596 5598 5598 5599 5600 5601 5600 5599
5653 5651 5648 5646 5644 5641 5640 5637 5635 5631 5628 5627 5626 5625 5625 5624 5622 5620 5617 5615 5613 5613 5612 5611 5609 5608 5607 5606 5605 5602 5599 5595 5594 5594 5597 5595 5595 5595 5595 5598 5598 5598 5597